Temp
21 21 21 21 21 22 22 21 21 21 20 21 21 21 21 20 21 22 23 22 20 21 22 21 21 22 23 23 23 23 22 22 21 21 20 19 19 19 18 18 18 18 18 17 17 17 17 17 17 17 18 18 19 19 19 19 19 19 19 18 18 18 18 18 18 18 17 18 18 17 17 17 17 17 17 16 16 16 16 16 16 16 16 16 15 15
20 21 20 21 21 21 21 20 19 20 20 21 21 21 21 20 22 22 22 22 20 21 21 20 22 22 23 23 23 23 23 24 22 21 20 20 20 19 19 18 18 18 18 17 17 16 16 16 16 16 17 18 18 18 18 19 19 19 19 18 18 18 18 18 18 18 17 18 18 17 17 17 17 16 16 16 16 16 16 15 15 15 15 15 15 15
20 21 21 21 19 18 19 19 19 21 21 21 21 21 21 20 21 22 22 22 21 22 22 21 22 23 23 23 23 23 24 24 23 21 20 19 19 19 19 18 18 18 18 18 17 16 16 16 16 16 16 17 18 18 18 19 19 19 19 18 18 18 18 18 18 18 17 18 18 18 17 17 17 17 16 16 16 16 16 15 15 15 15 15 15 15
20 21 22 19 18 19 20 19 20 21 21 21 21 21 21 20 20 21 22 22 21 21 21 22 22 22 23 23 23 23 22 22 23 22 20 19 19 19 19 18 18 18 18 18 17 16 15 15 15 16 16 16 17 17 18 18 19 19 19 19 18 18 18 18 18 17 17 17 17 18 17 17 17 17 17 16 16 15 15 15 15 15 15 15 15 15
20 21 20 19 19 20 21 20 20 21 21 21 21 21 21 21 21 21 21 21 21 20 20 22 21 21 22 23 24 23 20 21 22 22 22 20 19 19 19 19 18 18 18 18 17 16 15 14 15 16 16 16 16 16 18 18 19 19 19 19 18 18 18 18 18 18 17 17 17 17 17 17 17 17 16 16 16 15 15 15 15 15 15 15 14 14
21 21 20 20 20 20 21 21 20 21 21 20 21 21 22 22 21 21 20 20 21 21 20 20 20 21 21 21 23 23 21 22 22 21 23 22 19 18 19 19 18 18 18 17 17 17 16 15 15 15 16 16 16 16 18 18 19 19 19 19 18 18 18 18 18 18 17 17 18 17 17 17 17 16 16 17 17 16 16 15 15 15 14 14 14 14
21 21 21 21 20 19 20 20 20 20 20 20 21 21 21 21 20 20 20 20 20 20 19 19 20 20 20 21 23 23 22 23 22 21 23 23 21 19 19 19 19 18 18 17 17 17 16 15 15 15 15 16 16 16 17 17 19 19 19 19 18 18 18 18 18 18 17 18 18 18 17 17 17 17 17 17 17 16 16 15 15 15 14 14 14 14
20 22 22 20 20 19 20 20 20 20 21 21 21 21 21 21 21 20 20 20 20 19 19 19 20 20 19 21 22 21 21 23 23 23 23 23 21 19 19 19 18 18 18 17 17 17 16 16 15 15 15 16 16 16 16 17 18 19 19 19 18 18 18 18 18 18 17 18 18 18 18 18 18 18 18 17 17 16 16 15 15 15 14 14 14 14
19 22 22 21 20 19 20 21 21 20 21 22 21 20 21 21 20 20 20 20 19 19 20 19 19 19 19 21 21 19 20 22 23 23 23 23 22 19 18 18 18 18 18 18 17 17 17 16 16 16 16 16 16 16 17 17 18 19 19 19 18 18 18 18 18 18 18 18 18 18 18 18 18 18 17 17 17 16 16 16 15 15 15 14 14 14
20 22 21 21 21 20 22 22 21 21 22 22 20 20 20 20 19 19 20 20 19 19 20 20 19 19 19 20 21 19 20 22 23 23 22 22 21 20 19 18 18 18 17 18 18 17 17 16 16 16 16 16 16 16 17 17 17 18 19 19 18 18 18 18 18 18 18 18 18 18 18 18 18 17 17 17 16 16 16 16 16 15 15 14 14 14
20 20 20 21 22 22 23 21 19 21 21 21 21 21 21 20 19 19 18 19 19 19 20 19 18 19 19 20 20 20 20 22 22 22 21 21 21 20 19 18 18 18 17 17 18 17 17 17 17 16 16 16 16 16 16 16 17 17 18 18 18 18 18 18 18 18 18 18 18 18 19 18 18 18 17 16 16 16 16 16 16 16 15 14 14 14
20 20 20 22 22 21 22 21 19 19 20 20 21 21 20 20 19 19 19 19 19 19 19 18 17 19 20 20 20 20 20 20 20 21 21 21 21 20 18 18 18 18 17 17 18 17 17 17 16 16 16 16 16 16 16 16 16 16 17 18 18 18 18 18 18 18 18 18 18 19 19 18 18 18 17 17 16 16 16 16 16 16 15 15 14 14
20 21 20 21 22 21 22 22 20 20 20 20 21 20 19 19 18 19 19 18 18 19 18 17 17 19 19 20 21 20 21 20 19 19 19 19 19 18 18 18 19 18 17 17 17 17 17 17 16 15 15 16 16 16 16 16 16 16 17 17 17 18 18 18 18 18 18 18 18 18 19 18 18 18 17 17 17 17 17 16 16 16 16 15 15 14
21 21 20 21 22 22 22 22 21 20 20 20 20 20 20 18 17 18 17 16 17 19 17 16 17 19 19 20 20 19 20 19 19 18 18 18 17 17 17 18 19 19 17 17 17 17 17 17 16 15 15 15 15 16 16 16 16 16 16 17 17 18 18 18 18 18 18 18 18 18 18 18 18 17 17 17 17 17 17 17 17 16 16 16 16 15
20 20 21 22 21 21 22 22 21 21 20 20 19 19 20 19 18 18 18 18 18 18 17 17 18 19 20 20 18 18 18 18 18 18 17 18 17 17 17 17 18 19 19 17 16 16 17 16 16 16 16 15 15 16 16 16 16 16 16 16 16 17 17 17 18 18 18 18 18 18 18 18 18 17 17 17 17 17 17 17 17 17 16 16 16 16
19 20 21 20 20 21 22 21 21 21 21 19 18 19 20 20 20 18 17 17 18 18 18 18 18 19 19 18 18 17 18 18 17 17 17 18 17 17 17 17 17 17 18 18 17 17 16 15 16 16 16 16 16 16 16 16 16 16 16 16 16 17 17 17 18 18 18 18 18 18 18 18 18 18 17 17 17 17 17 17 17 16 16 16 16 15
19 20 20 20 20 21 21 21 21 22 21 19 18 20 19 18 20 19 16 15 16 17 17 17 18 19 18 19 18 18 18 17 17 17 17 17 17 17 17 17 17 17 17 18 18 18 17 16 16 16 16 16 16 16 16 16 17 16 16 16 16 16 16 17 17 18 18 18 18 18 18 18 18 18 17 17 17 17 17 16 16 16 16 16 15 15
19 20 20 20 21 21 19 20 21 20 20 20 19 20 19 18 19 19 18 16 16 17 17 16 18 19 19 19 19 18 18 18 17 17 17 17 17 17 17 17 17 17 17 17 18 18 17 16 16 17 16 16 16 16 16 16 16 16 16 16 16 16 16 16 17 17 17 18 18 18 18 18 18 18 17 17 17 17 17 16 16 16 16 16 15 15
18 20 20 19 20 20 19 20 21 19 19 20 20 19 19 19 19 18 18 17 16 16 16 16 17 17 18 19 19 18 18 17 17 17 17 17 17 17 17 17 17 17 17 17 17 17 17 16 17 17 17 17 17 16 16 16 16 16 16 16 16 16 16 17 17 17 17 17 18 18 18 18 18 17 17 17 17 17 17 16 16 16 16 16 15 15
17 18 19 19 18 19 20 20 20 20 19 19 19 18 18 18 18 17 17 17 17 16 16 16 17 17 18 19 19 18 17 17 17 17 17 17 17 17 17 17 17 16 16 17 17 17 17 16 16 18 18 18 18 17 17 16 16 16 16 16 16 16 16 16 16 16 17 17 17 17 18 18 17 17 17 17 17 17 17 16 16 16 15 15 15 14
17 17 18 19 18 18 19 19 19 19 19 19 19 18 18 18 17 17 17 16 17 17 16 16 16 18 18 17 17 18 17 17 17 17 17 16 16 16 16 16 17 16 16 16 16 16 16 15 15 17 17 18 18 18 17 17 17 16 16 16 16 16 15 16 16 16 17 17 17 17 17 18 17 17 17 17 17 17 17 16 16 16 15 15 15 14
17 17 17 18 18 18 18 18 18 18 18 19 19 18 18 18 17 17 17 15 16 16 16 15 16 18 17 15 16 17 17 17 17 17 18 17 16 16 15 15 15 15 16 16 16 16 15 14 14 15 16 17 18 18 18 18 17 17 16 16 16 16 15 15 15 16 16 16 16 17 17 17 17 17 17 17 17 16 16 16 16 15 15 15 14 14
16 16 17 17 17 17 16 16 16 17 17 18 17 17 17 17 17 17 17 16 15 15 15 14 15 17 16 14 16 16 16 16 16 17 17 16 16 15 14 14 14 14 15 14 15 15 14 13 14 15 15 16 16 17 17 17 17 17 17 17 16 16 16 16 15 15 15 15 15 15 16 17 17 17 17 17 16 16 16 16 15 15 15 15 14 14
16 16 16 16 16 16 17 17 15 15 17 17 16 16 16 16 16 16 16 15 15 15 15 15 15 16 15 14 15 16 16 17 16 16 16 15 15 14 13 13 13 13 13 13 14 13 12 13 13 13 14 14 15 15 16 16 16 17 17 17 16 16 16 16 16 16 16 16 16 15 15 15 16 16 16 16 16 16 15 15 15 15 14 14 14 14
17 16 16 15 15 16 16 17 16 17 17 16 15 15 15 16 16 15 14 14 15 15 15 16 16 16 15 14 15 16 16 16 16 15 15 14 14 14 13 12 12 12 13 13 13 13 12 12 12 12 12 13 13 14 14 15 16 16 16 16 16 17 16 16 16 16 16 16 15 15 14 14 14 15 16 16 16 15 15 15 15 14 14 14 14 13
16 15 15 15 15 14 15 15 16 17 16 15 14 14 15 16 16 15 15 15 14 14 14 15 16 16 15 14 15 15 14 15 15 14 14 14 13 13 13 12 12 12 12 12 12 12 12 12 11 10 11 12 12 13 13 14 15 15 16 16 16 16 16 16 16 16 15 15 15 14 14 14 14 14 14 15 15 15 15 15 14 14 14 13 13 13
15 14 14 15 15 14 15 16 15 15 16 15 15 14 14 15 15 15 15 14 14 14 14 14 15 16 15 14 15 15 13 13 14 13 13 13 13 13 12 11 11 11 11 11 11 11 12 12 11 10 10 11 12 13 13 13 14 14 14 15 15 15 15 16 16 15 15 15 15 15 14 14 14 14 14 14 15 15 14 14 14 14 13 13 13 12
15 14 14 14 15 15 15 16 15 15 15 16 15 14 14 14 15 15 14 14 14 14 13 14 15 15 15 14 14 14 13 13 13 13 13 13 13 13 12 11 11 11 11 11 11 11 11 11 11 9 10 11 11 12 13 13 14 14 14 14 14 15 15 15 15 15 15 15 15 14 14 14 15 15 15 14 14 14 14 14 14 13 13 13 12 12
14 14 13 13 14 15 14 14 14 14 15 15 15 14 14 14 14 14 14 14 14 13 14 14 14 15 14 13 13 13 12 13 13 12 12 12 12 11 11 12 11 11 11 11 11 11 11 11 11 9 9 10 10 11 12 12 13 13 14 14 14 14 14 15 15 15 14 14 14 14 14 14 14 14 14 14 14 14 14 14 13 13 13 13 12 12
13 13 13 12 13 14 14 13 13 13 14 14 14 14 13 13 14 14 14 13 13 13 14 14 13 13 13 12 12 12 11 11 11 11 12 12 11 11 11 11 11 10 11 10 10 11 10 11 10 9 9 10 10 10 11 11 11 12 13 14 14 14 13 14 15 15 14 14 14 14 14 14 14 13 13 13 14 14 14 14 13 13 13 12 12 12
13 13 12 13 13 13 14 14 13 13 13 13 13 13 13 13 13 13 12 12 12 13 13 12 12 12 12 12 11 11 10 11 12 12 13 12 11 11 12 11 11 11 11 11 10 10 10 10 9 8 9 10 10 10 10 10 11 11 12 13 13 14 13 13 13 14 14 14 14 14 13 13 13 12 13 13 14 14 14 14 13 13 12 12 12 11
12 12 12 13 12 12 13 14 13 13 13 12 12 12 12 13 13 13 13 13 13 13 13 12 12 12 12 11 10 10 10 12 12 12 13 12 11 11 11 11 11 11 11 11 11 11 10 10 10 8 8 9 10 10 10 10 10 10 11 12 12 13 13 12 12 13 14 14 13 13 12 12 12 12 12 13 13 13 13 13 13 12 12 12 11 11
12 12 12 12 11 11 13 13 13 13 12 11 12 12 13 14 13 12 13 12 13 13 13 13 13 13 11 10 10 10 10 11 12 12 12 11 10 11 11 11 11 11 11 11 11 11 11 10 9 9 9 9 10 10 10 10 9 10 10 11 11 12 12 12 12 13 13 13 13 12 12 12 11 12 12 12 13 13 13 12 12 12 12 12 11 11
12 12 12 12 11 11 12 12 11 11 11 12 13 13 13 14 13 13 13 13 13 12 12 12 12 11 10 10 11 11 10 11 11 11 11 10 10 11 11 11 11 11 11 10 10 11 10 8 8 9 9 10 10 10 10 10 9 9 10 10 11 11 11 11 12 12 12 12 12 12 12 12 12 12 12 12 13 12 12 12 12 12 12 11 11 10
11 11 10 11 11 10 11 11 10 10 11 12 13 11 11 13 14 13 13 13 12 11 11 11 11 10 10 11 10 10 10 11 10 10 10 10 10 11 11 11 10 10 10 10 10 10 8 7 8 9 10 10 10 10 10 10 9 9 9 9 10 10 10 10 11 12 12 12 12 12 11 11 11 11 12 12 12 12 12 12 12 12 11 11 10 10
10 10 9 10 10 9 10 10 9 10 11 12 12 11 10 11 13 13 12 12 10 10 11 11 10 10 10 10 10 10 10 9 9 10 10 10 10 11 11 11 11 10 10 9 9 8 8 8 9 9 10 10 10 9 9 9 9 9 9 9 9 9 10 10 10 11 11 11 11 11 10 10 10 9 9 10 11 11 11 12 11 11 11 10 10 10
9 9 9 9 9 9 9 9 10 10 10 11 11 10 9 9 10 11 12 12 10 9 10 11 11 10 10 10 10 10 9 8 9 10 11 11 10 11 11 10 10 9 9 8 8 8 9 10 10 9 9 9 9 9 9 9 9 9 8 8 8 9 9 10 10 11 11 11 10 10 10 10 9 9 9 10 10 11 11 11 11 11 11 10 10 9
10 9 10 9 9 9 9 9 9 9 10 10 10 9 8 7 7 8 10 11 10 9 9 10 11 10 10 10 10 9 8 8 9 11 11 11 11 11 10 8 7 7 8 8 8 9 9 10 9 9 9 9 8 9 9 9 9 8 8 8 8 8 9 9 10 10 10 10 10 10 10 10 10 10 10 11 11 11 11 11 11 10 10 10 9 9
10 9 9 9 9 9 9 9 9 9 9 9 8 9 8 7 7 9 10 10 10 10 9 10 10 10 10 10 10 9 9 9 9 10 11 12 11 10 10 8 7 7 8 8 8 8 9 9 9 8 8 8 8 8 8 8 8 8 7 7 7 8 8 9 10 10 10 10 10 10 10 10 11 11 11 11 11 11 11 10 10 10 10 9 10 9
10 9 9 9 9 9 9 9 9 9 9 8 8 8 8 7 9 10 10 9 9 10 9 9 10 11 11 10 9 9 9 10 10 10 11 11 10 8 8 8 7 7 7 8 8 8 8 8 8 7 7 7 7 8 8 8 8 7 7 7 7 7 8 9 10 10 10 10 10 10 11 11 11 11 11 11 11 11 10 10 10 10 9 9 10 10
9 9 8 8 8 8 8 8 8 9 8 8 8 8 8 9 9 9 8 8 9 10 10 9 10 10 11 10 10 9 10 10 10 10 9 9 8 7 6 7 7 7 7 7 8 8 7 7 7 7 7 7 7 7 7 8 7 7 7 7 7 7 8 9 10 10 10 9 9 10 10 10 11 11 11 11 11 10 10 10 10 10 10 10 10 10
8 8 8 8 8 8 8 8 8 8 8 8 8 8 9 9 8 8 9 9 9 10 10 10 10 10 10 10 10 10 10 9 9 9 8 7 8 7 6 6 6 6 6 6 7 7 7 6 6 6 6 6 6 7 7 7 6 6 7 6 7 8 9 9 10 10 10 9 9 8 9 10 11 11 11 11 10 10 10 10 10 10 10 10 10 10
7 7 7 7 8 7 7 7 7 7 8 9 9 9 9 9 9 9 10 9 9 10 10 10 10 10 9 9 9 9 9 8 8 8 8 7 7 7 6 5 5 5 5 6 6 6 6 6 6 6 6 6 6 6 6 6 6 6 6 6 7 9 9 9 9 9 9 9 8 8 8 9 10 10 10 10 10 10 10 10 11 10 10 10 10 9
8 7 6 7 7 7 6 7 8 8 9 9 9 9 9 9 10 10 9 9 9 10 9 9 10 10 9 9 9 9 8 8 8 8 8 7 7 7 6 5 5 5 5 5 6 6 6 6 5 5 6 6 6 6 6 6 6 6 6 7 8 9 9 9 9 9 8 8 8 8 8 9 9 9 9 10 10 11 11 10 10 10 10 10 9 9
7 8 7 7 7 7 7 8 8 9 8 8 8 9 9 10 10 9 9 9 9 9 9 9 9 10 10 9 9 8 8 8 8 8 7 7 7 7 6 5 5 5 5 5 6 6 6 5 5 5 6 6 6 6 6 7 7 6 7 8 9 9 8 8 9 8 8 7 7 7 7 7 8 8 9 9 10 11 11 10 10 10 10 9 9 8
7 7 7 7 7 7 7 7 8 8 8 8 8 8 9 9 9 9 9 9 9 9 9 9 9 9 9 9 8 7 7 7 7 7 7 6 6 6 5 5 4 4 5 5 5 6 6 5 5 5 5 6 6 7 7 7 7 7 7 8 8 8 8 8 8 7 7 7 7 7 7 7 8 9 10 10 10 10 10 10 10 10 9 9 9 8
7 6 6 6 6 6 6 7 8 8 8 8 8 8 8 8 8 9 9 9 9 9 9 9 8 8 8 7 7 7 6 6 6 6 6 6 6 6 5 4 4 4 4 5 5 6 6 5 5 5 6 6 7 7 7 8 7 7 7 7 8 8 7 7 7 6 6 6 6 6 6 8 9 10 10 10 10 10 10 10 10 10 9 9 9 9
6 6 5 6 6 6 6 7 8 7 7 7 7 7 8 8 9 9 8 8 8 8 8 7 7 7 7 7 6 6 6 6 6 5 5 5 5 5 5 4 3 4 5 5 5 5 5 5 5 6 6 6 7 7 7 7 7 7 7 6 7 7 6 6 6 6 6 6 6 6 8 9 10 10 10 10 10 10 10 10 10 10 9 9 9 9
6 5 5 5 5 5 5 6 7 6 6 7 7 7 8 8 8 8 8 8 8 8 7 6 5 5 6 6 6 6 5 5 5 5 5 5 5 5 4 4 4 4 5 5 5 5 5 5 6 6 6 6 7 7 7 7 6 6 5 5 6 6 5 5 5 6 6 7 7 8 9 10 10 10 10 10 10 10 10 10 10 9 9 9 9 8
5 4 5 5 4 4 5 6 6 6 6 7 7 7 8 8 8 8 8 7 7 7 7 6 5 5 4 4 5 5 5 5 5 5 5 5 5 4 4 4 4 4 5 5 5 6 6 6 6 6 6 7 7 7 7 6 5 5 5 5 6 6 6 6 6 6 7 7 7 8 9 9 10 10 10 10 10 10 10 9 9 9 9 9 8 8
5 5 5 5 4 5 6 6 6 5 5 6 7 7 7 7 7 7 7 7 6 6 6 6 6 5 5 4 4 4 5 5 4 4 5 5 4 4 4 4 4 4 5 5 5 5 6 6 6 6 6 7 7 7 7 6 6 5 5 5 6 6 6 6 6 6 6 7 7 9 9 10 10 10 10 9 9 9 9 9 9 9 9 9 8 8
Height
767 773 778 778 775 771 770 771 772 774 776 776 776 778 781 782 776 771 766 762 764 768 770 770 770 768 764 761 758 757 758 758 760 763 766 767 767 768 770 770 771 771 770 771 774 776 777 779 780 781 782 783 785 786 786 788 789 791 794 796 798 800 802 803 803 804 805 806 807 809 810 810 811 812 812 812 813 813 814 814 814 814 815 815 815 816
769 777 778 772 771 770 771 774 775 775 776 775 775 776 779 781 775 770 766 764 765 767 772 772 767 766 764 760 758 756 755 755 758 762 764 764 765 766 767 768 769 770 771 773 775 777 779 780 781 781 782 782 783 784 786 787 789 791 793 796 798 799 801 803 804 805 805 806 807 808 809 810 811 812 812 813 813 813 814 814 815 815 815 815 816 816
777 777 770 768 773 776 775 776 774 773 774 774 776 778 779 780 777 771 766 765 766 766 769 770 766 764 762 759 758 756 755 754 754 758 761 763 764 765 765 766 769 771 772 773 775 776 777 779 780 781 781 781 781 783 785 787 788 790 793 795 798 799 800 802 803 805 806 806 807 808 810 810 811 812 813 813 813 813 814 814 815 815 815 815 816 816
782 772 764 769 774 773 773 776 774 773 774 774 776 778 780 781 781 776 769 766 767 768 770 769 768 766 761 759 756 755 757 755 753 755 758 762 762 762 763 763 766 768 770 772 773 774 776 778 780 779 779 780 782 783 784 785 787 789 792 795 797 798 800 801 803 805 806 807 808 809 810 811 812 812 813 813 813 814 814 815 815 815 816 816 816 816
778 767 764 770 771 770 772 775 776 773 774 776 775 775 777 777 777 777 773 769 768 771 771 769 773 772 765 764 758 755 760 757 753 754 754 757 759 759 761 762 764 765 765 767 769 772 774 775 775 776 778 780 781 781 781 782 784 787 791 793 796 797 799 800 802 804 805 806 807 808 810 811 812 813 813 813 814 814 814 815 815 816 816 816 816 817
772 765 766 768 769 771 771 773 774 773 776 778 774 771 770 771 773 775 776 776 777 778 774 774 783 781 772 771 764 757 760 757 756 757 752 751 756 760 761 760 762 764 764 765 765 767 769 770 773 776 778 779 779 779 779 780 782 786 789 792 795 796 798 799 801 803 804 805 806 807 809 810 811 812 813 813 813 814 814 815 815 816 816 816 817 817
769 763 763 766 770 773 774 774 773 773 779 781 772 767 768 771 775 777 777 780 784 785 780 779 787 787 778 771 763 759 760 757 756 757 752 749 752 756 757 756 758 760 762 765 765 766 767 768 772 774 775 775 775 776 779 781 783 785 788 791 793 795 797 798 800 802 803 804 805 805 807 808 810 811 812 813 813 814 814 815 816 816 816 817 817 817
768 763 763 767 770 774 776 774 771 770 777 777 769 766 769 771 774 777 778 779 782 783 782 781 783 789 786 772 764 765 766 760 755 754 752 750 749 752 753 753 753 754 757 761 763 764 765 766 768 769 770 771 773 776 779 781 782 785 788 790 793 794 796 797 799 800 802 803 804 804 805 807 808 810 811 812 813 814 815 815 816 816 817 817 817 817
768 763 763 766 771 775 772 765 765 768 770 767 764 767 768 769 773 775 776 779 784 785 785 784 784 792 793 775 766 771 769 763 757 752 750 747 746 747 749 749 749 750 752 755 757 759 761 763 763 764 765 768 772 774 776 778 781 784 787 789 792 794 795 796 797 799 800 801 802 803 804 806 808 810 811 812 813 814 814 815 816 816 817 817 817 818
765 761 760 764 769 769 762 758 761 763 764 762 764 768 769 772 776 777 779 780 786 791 787 783 785 793 793 776 769 775 771 763 757 752 749 745 743 742 743 744 746 748 750 751 752 754 755 756 758 761 765 768 771 773 775 778 781 784 786 788 791 792 794 795 796 798 799 800 801 802 803 804 807 808 810 811 812 813 814 815 816 816 817 817 818 818
762 759 760 761 761 759 754 758 763 760 760 762 764 767 770 775 777 779 785 783 788 794 786 783 786 790 791 778 769 771 766 760 756 753 750 744 740 739 738 739 742 745 748 748 749 751 752 754 757 762 766 768 771 774 776 778 780 782 785 787 789 791 792 793 795 796 798 799 800 800 802 803 805 807 808 810 811 812 813 814 815 816 816 817 818 818
764 761 760 755 752 754 754 758 764 763 762 764 766 770 775 780 781 782 786 786 793 795 785 786 788 787 788 776 766 766 762 759 760 756 751 745 740 738 738 740 741 741 743 745 747 750 752 756 760 763 766 768 771 773 775 776 778 780 782 784 786 789 791 792 794 795 797 798 799 799 800 801 803 805 807 808 809 811 812 813 814 815 816 817 818 818
764 759 759 755 750 752 755 761 766 765 766 767 769 775 784 791 794 793 792 794 797 791 786 790 788 787 785 770 761 763 759 758 761 758 754 750 745 741 740 741 742 744 744 744 745 748 752 756 757 760 763 766 768 769 771 773 775 777 779 781 783 785 788 790 792 794 795 796 797 798 799 800 802 804 806 807 808 810 811 812 813 814 815 816 817 818
767 762 759 756 752 749 753 762 768 768 768 769 769 773 784 797 805 804 803 806 801 789 788 793 789 786 780 769 765 764 760 759 760 758 755 752 750 747 744 742 741 745 748 748 748 748 750 752 753 756 759 761 763 764 768 770 772 774 776 778 780 782 785 787 789 791 794 795 796 797 797 798 800 802 804 806 807 809 810 811 812 813 814 815 816 817
777 773 761 756 756 752 752 757 762 764 767 770 770 771 777 785 794 798 797 797 794 789 789 790 786 782 775 771 770 766 763 763 760 757 753 751 750 749 747 746 744 744 746 749 752 752 750 750 750 753 755 757 759 762 765 766 768 771 773 775 777 780 782 784 786 789 791 794 795 796 796 797 798 800 802 804 805 807 809 810 811 812 814 815 816 817
780 774 759 755 756 751 752 753 753 758 766 772 772 772 773 772 776 788 795 793 792 791 790 787 784 779 774 772 770 767 763 763 762 758 754 754 753 749 750 751 749 748 748 748 751 754 754 754 754 754 754 755 756 759 761 764 766 768 770 772 774 777 779 781 783 786 788 791 793 794 795 795 796 798 800 802 804 805 807 809 810 811 813 814 815 817
778 772 759 758 756 751 754 753 749 754 763 771 773 770 772 770 767 781 797 801 799 795 793 793 784 775 774 773 769 767 764 763 764 760 758 759 756 753 756 755 753 752 751 750 751 752 753 755 756 757 757 757 757 758 759 760 762 763 766 769 772 775 778 780 782 784 786 789 791 793 793 794 795 796 798 800 802 804 806 807 809 810 812 813 814 816
773 771 762 759 757 753 754 754 751 752 756 765 772 769 769 772 770 776 788 797 802 800 796 794 786 778 779 777 771 768 767 766 767 762 761 761 758 758 760 757 756 754 752 752 751 752 752 752 754 756 757 759 761 762 762 762 763 763 765 767 770 773 775 777 779 782 784 787 789 791 792 793 794 795 797 798 801 803 804 806 808 809 810 812 813 815
771 772 765 761 761 756 753 755 758 758 756 758 764 765 769 776 779 781 787 793 799 803 799 793 791 788 781 775 772 772 770 769 769 767 764 763 762 764 762 758 758 756 753 752 752 752 753 752 752 754 755 758 760 762 764 765 767 768 769 769 769 770 772 775 778 780 782 785 787 789 791 792 793 794 796 798 799 801 802 804 806 808 810 811 812 814
772 776 771 763 764 762 757 759 765 765 763 760 761 766 770 775 781 784 789 791 792 800 801 794 791 786 774 768 769 770 770 769 768 768 768 767 766 766 764 761 759 757 755 754 753 753 754 753 753 753 755 756 757 760 762 765 766 767 770 771 772 772 773 775 777 778 780 781 783 786 788 790 792 793 795 797 798 799 800 802 804 806 808 810 811 813
773 778 777 767 765 766 764 766 768 768 768 765 766 772 774 776 783 785 787 791 790 794 800 798 793 781 770 771 770 767 770 769 767 768 768 769 769 768 767 764 760 759 758 755 754 754 754 754 754 753 755 756 757 759 761 763 765 767 769 770 772 774 774 774 775 775 777 778 780 783 784 786 789 791 793 795 796 797 798 800 802 804 807 808 810 812
773 777 779 774 769 770 770 769 767 766 768 767 767 772 775 776 782 785 790 794 791 790 795 799 794 780 773 777 774 770 772 770 767 767 766 767 769 769 770 768 765 764 761 759 756 755 755 756 755 755 756 757 758 759 759 760 763 765 767 768 770 772 773 774 775 775 777 780 781 781 782 783 786 788 791 793 795 796 797 798 800 802 804 806 808 810
774 777 779 778 774 774 775 771 769 769 768 769 771 774 776 777 779 785 790 792 791 793 796 799 796 784 779 780 776 773 773 771 769 767 765 768 769 770 771 770 769 767 765 764 761 759 761 760 760 759 758 759 760 760 761 761 761 761 763 765 767 768 770 771 773 774 776 779 781 782 782 782 784 786 788 791 793 794 796 797 799 800 802 804 806 809
774 778 780 780 778 775 771 768 771 772 769 772 777 778 778 779 780 783 787 788 790 791 792 796 796 787 780 780 777 775 772 769 770 770 768 770 771 772 773 771 770 768 767 766 765 764 765 763 762 761 760 761 761 761 763 763 762 762 761 762 763 765 766 768 768 769 771 772 775 779 782 783 783 784 786 789 791 794 796 797 799 800 801 803 805 807
775 780 783 786 788 784 778 775 774 771 770 776 782 782 780 780 781 785 789 791 792 792 789 789 790 785 782 782 778 775 773 771 773 774 773 773 773 773 773 772 771 770 768 768 767 766 766 766 765 764 762 762 761 761 763 763 764 764 763 763 762 762 763 765 766 767 767 768 770 774 777 781 783 785 785 787 790 793 796 797 799 800 801 803 805 806
778 784 784 786 792 795 791 786 780 774 775 781 784 784 782 780 781 784 787 791 793 795 793 788 784 781 782 784 779 776 779 778 776 777 776 775 775 774 774 774 773 772 771 770 770 769 769 769 768 767 766 764 762 763 764 763 763 763 764 764 763 762 762 763 764 766 766 766 768 770 772 775 779 783 786 787 788 791 794 797 799 800 801 803 804 806
780 786 784 782 786 788 785 780 778 778 777 778 781 784 784 783 782 783 787 791 790 792 791 786 783 780 781 784 780 778 783 783 779 779 778 776 776 774 775 775 774 774 774 773 773 772 771 771 770 770 769 767 766 765 765 764 764 764 764 763 763 764 763 763 763 764 764 764 764 765 768 770 772 777 781 785 787 789 792 795 797 799 801 802 803 805
782 785 784 783 782 781 779 776 775 778 776 774 778 782 784 783 781 783 786 788 788 791 790 784 782 781 780 783 781 780 784 784 781 780 778 777 776 776 776 776 775 775 775 775 775 775 774 774 773 772 771 770 769 767 766 765 764 764 764 763 763 764 763 764 764 764 763 763 762 762 764 766 769 770 773 778 782 785 788 792 795 798 800 801 802 804
786 786 786 786 780 776 779 779 778 779 777 776 777 779 782 782 781 783 785 785 788 789 784 779 780 780 780 784 783 782 783 782 781 781 780 778 779 779 779 777 776 777 776 776 776 776 775 775 774 773 772 771 770 768 767 766 765 764 763 762 762 762 762 763 763 763 763 763 762 762 762 764 766 768 770 773 776 779 782 786 791 795 797 799 801 802
787 787 788 789 783 778 778 780 781 782 779 778 778 779 781 782 781 781 782 784 786 784 777 780 784 782 781 784 784 784 785 784 783 782 779 779 780 780 779 778 778 779 778 777 777 776 775 774 774 773 772 771 770 769 768 767 765 764 763 761 760 760 760 761 760 760 761 760 761 761 761 762 762 764 766 769 773 775 777 780 785 790 794 797 798 800
788 790 789 787 786 783 778 777 780 782 781 781 780 780 782 783 783 784 784 784 786 783 779 783 788 785 783 785 785 786 786 783 781 779 777 778 780 779 778 779 779 779 778 777 777 776 776 775 774 773 771 770 769 768 768 767 766 765 763 761 760 758 758 758 758 757 757 757 757 758 759 759 760 761 762 764 768 771 771 773 778 783 788 792 795 798
789 793 789 786 790 787 778 776 778 778 781 783 782 782 781 779 779 781 781 780 779 778 778 781 782 780 782 786 787 787 785 781 779 778 777 779 780 780 779 779 779 778 777 776 775 774 773 773 773 772 771 769 768 767 767 767 766 765 763 761 759 758 757 756 755 755 754 754 754 755 756 757 758 760 760 761 765 767 767 769 774 779 783 787 791 795
788 789 788 789 794 789 780 780 779 779 782 780 775 775 774 772 774 777 777 777 775 773 774 775 773 774 781 787 787 786 786 783 780 779 778 780 781 780 779 779 778 777 776 774 773 771 770 770 770 770 769 768 766 765 765 765 764 763 761 760 758 757 755 754 753 752 752 752 752 752 754 755 756 758 760 761 765 768 769 769 772 776 780 784 788 791
787 787 788 788 790 787 781 782 786 789 786 774 764 766 767 765 768 772 770 769 771 774 774 773 773 777 782 784 784 784 784 782 780 779 780 781 780 779 779 778 777 776 775 773 772 770 769 768 768 767 767 766 765 763 762 762 761 760 759 758 756 754 753 752 751 750 749 749 749 750 751 752 753 754 755 758 762 767 770 770 771 775 779 783 786 789
789 790 791 788 789 790 786 786 794 793 779 766 764 770 770 764 763 766 766 767 773 777 776 774 777 779 780 780 782 783 782 781 780 780 779 779 778 777 776 776 775 775 774 772 771 770 769 768 767 766 765 764 763 762 761 759 758 757 755 754 753 752 751 750 748 748 747 747 747 748 749 751 752 753 753 754 758 764 768 770 770 774 778 783 785 787
790 793 794 792 792 794 792 792 794 787 772 765 766 772 774 771 767 768 768 771 776 778 774 773 777 780 780 781 782 782 782 783 782 779 777 776 776 775 774 774 773 773 772 771 770 769 768 767 766 765 764 763 762 761 760 758 757 755 753 751 751 750 748 747 746 745 745 745 745 746 748 750 752 754 756 756 758 763 766 767 770 774 778 782 784 786
790 791 793 793 792 791 791 790 787 782 776 771 771 776 781 780 776 773 770 771 777 781 778 776 777 779 780 781 781 782 785 787 783 777 774 774 774 772 771 771 771 770 770 769 767 767 766 765 764 764 763 762 761 760 758 757 755 754 751 749 748 747 746 745 743 743 742 743 743 744 746 747 749 753 757 759 762 765 765 766 770 774 778 780 783 785
786 788 788 790 792 790 790 792 790 787 783 779 779 783 785 785 786 782 775 774 778 781 780 778 777 778 780 780 780 783 785 785 781 775 772 771 771 770 770 769 769 768 767 766 765 765 764 763 763 762 761 760 758 758 756 754 753 751 748 746 746 745 744 742 741 741 741 741 741 742 743 745 746 749 753 756 761 764 764 766 771 775 778 780 782 784
783 787 788 789 791 790 790 792 791 786 783 783 785 784 783 785 784 778 775 779 780 780 781 781 779 778 778 778 779 782 782 780 777 774 771 769 769 769 768 767 766 765 765 764 764 763 762 762 761 760 759 758 756 754 754 752 750 748 745 744 744 743 741 739 738 739 739 739 740 740 741 743 745 747 750 753 758 760 762 766 770 774 778 780 781 783
784 788 791 791 792 790 790 791 789 783 783 786 786 784 784 782 777 775 781 785 783 780 782 782 779 776 775 776 778 779 777 775 773 770 769 768 767 767 767 765 764 764 763 762 762 761 761 760 759 757 755 754 752 751 750 749 747 744 742 741 741 739 737 736 736 737 739 739 739 739 739 741 742 744 747 753 757 760 762 766 769 773 777 779 780 781
790 790 792 792 792 791 792 792 789 785 785 786 785 784 783 779 779 785 789 786 782 779 780 780 778 775 773 774 775 774 771 770 768 766 767 768 767 765 764 763 762 761 761 760 759 759 758 757 755 754 751 749 748 747 746 745 743 741 739 738 736 734 733 734 735 736 737 739 739 739 738 739 740 742 746 751 755 759 763 766 769 773 775 777 778 779
799 797 796 794 793 794 794 793 791 789 786 785 785 784 781 781 786 789 785 781 780 778 777 776 775 773 773 772 772 771 769 767 766 765 766 767 766 764 762 761 760 758 758 758 757 756 755 753 750 748 746 744 744 742 742 742 740 737 736 734 732 730 730 732 732 733 734 736 738 739 740 740 740 743 747 752 755 758 763 767 770 772 775 776 776 777
800 802 802 797 795 797 797 796 795 793 786 782 783 783 782 784 786 783 779 778 779 777 776 776 774 773 773 772 771 770 769 768 767 765 764 764 764 763 761 759 758 756 754 754 754 753 751 748 745 743 740 739 739 739 738 738 736 734 733 730 727 727 728 728 729 730 731 733 736 738 739 740 741 744 748 752 756 759 763 767 770 772 774 775 775 776
799 801 804 801 797 799 800 795 790 787 784 782 783 784 783 782 780 779 779 778 777 776 776 775 774 773 773 772 770 769 768 767 765 763 761 760 760 759 758 756 755 753 751 750 749 747 746 744 741 738 737 736 736 735 734 734 732 730 728 725 724 725 725 725 726 727 728 731 734 737 738 740 743 747 750 754 757 760 763 766 769 771 772 773 774 775
798 797 801 800 797 796 795 790 784 783 783 783 783 782 780 778 777 778 778 777 775 775 775 774 772 771 770 770 769 768 767 765 763 762 760 758 756 755 754 752 751 750 749 746 745 743 742 740 738 735 733 732 732 731 730 729 728 725 723 722 721 722 723 724 725 725 727 730 733 736 739 743 747 749 751 755 758 760 763 765 767 769 771 772 773 774
798 797 798 798 796 794 791 787 785 784 782 782 782 781 778 777 776 776 775 774 774 773 772 772 771 769 768 768 768 767 766 764 762 760 759 756 754 753 751 750 748 748 746 744 742 741 739 737 735 733 730 729 728 727 726 725 724 721 719 719 719 719 720 721 723 725 728 731 733 737 742 746 748 748 750 754 758 760 762 764 765 768 769 771 772 772
799 800 801 799 798 798 793 786 783 783 782 781 781 779 777 776 775 774 774 772 771 770 770 770 769 768 768 767 767 765 763 761 760 759 756 754 752 750 748 748 746 745 744 742 739 738 736 734 732 730 728 726 724 723 722 721 719 718 716 716 716 717 718 720 722 725 729 732 736 741 744 746 747 748 750 753 757 760 762 763 765 767 768 770 770 770
801 802 802 799 797 797 793 786 783 782 782 781 781 779 777 775 774 774 774 772 771 771 769 768 768 767 766 765 764 763 761 759 758 756 754 752 749 747 746 745 743 741 740 738 736 735 733 731 729 727 725 723 721 720 719 718 716 715 714 714 714 715 718 720 722 724 728 733 739 743 745 745 746 748 751 754 757 759 761 762 764 766 767 768 768 768
802 803 800 797 796 796 792 787 785 784 781 778 778 777 776 774 773 773 772 772 771 770 768 767 766 765 763 762 760 760 759 756 754 753 751 748 746 744 742 741 739 738 736 734 733 731 729 727 725 724 722 720 719 718 717 715 714 714 713 713 712 713 717 721 723 725 729 735 740 743 744 746 747 750 752 755 757 759 761 762 764 765 766 767 767 768
802 802 798 798 800 799 792 785 784 785 782 776 774 775 774 773 773 771 769 769 768 767 766 765 762 761 760 759 758 757 756 753 750 750 748 745 743 741 739 737 736 734 732 730 729 727 725 724 722 721 719 717 717 716 716 715 715 715 716 715 714 714 718 722 725 729 733 737 740 743 745 746 748 751 753 756 758 760 761 763 764 764 765 766 767 768
798 796 794 795 796 792 786 781 781 783 781 775 772 772 772 771 771 769 767 766 765 764 764 763 760 758 757 755 754 753 751 748 746 746 744 741 739 737 735 734 733 731 728 727 725 723 722 720 719 718 716 715 714 715 715 716 717 719 720 720 718 719 722 725 729 733 737 740 742 744 745 746 748 751 754 757 760 761 761 762 763 764 765 766 767 769
Wind_Speed
2 1 2 4 6 7 7 6 6 5 4 4 4 4 2 1 3 5 5 6 1 3 3 4 3 4 6 7 8 7 4 1 7 7 6 7 7 7 8 9 10 11 9 10 16 21 22 23 26 28 29 29 29 28 27 26 24 23 23 24 24 23 21 20 20 20 20 19 16 14 12 11 11 10 10 10 9 8 7 6 5 5 5 4 4 3
3 0 6 8 9 7 5 4 5 4 4 4 3 2 3 0 3 4 4 6 3 4 3 3 2 3 6 6 7 6 5 3 6 8 9 11 11 9 10 11 10 7 5 7 12 16 18 19 22 25 28 31 31 30 30 27 26 25 24 25 26 25 23 22 22 22 21 19 17 15 14 13 12 10 10 10 9 8 7 7 6 6 5 4 4 4
4 4 10 9 6 3 1 3 5 5 5 4 2 1 2 2 3 5 5 6 4 3 3 4 1 4 7 6 7 5 4 6 5 7 8 10 10 9 10 11 8 7 6 8 10 13 17 19 21 24 27 30 31 32 31 28 27 27 26 26 26 26 26 25 23 21 20 19 17 15 15 14 12 9 8 8 6 5 5 7 6 4 4 4 4 3
2 6 9 3 6 4 0 2 5 4 3 3 3 2 2 3 1 3 5 6 4 2 1 0 3 5 6 5 7 6 4 5 6 5 7 8 10 11 11 9 9 11 10 10 11 12 14 16 19 23 26 27 28 31 32 30 30 30 29 28 28 28 28 27 24 21 19 18 16 15 14 14 12 10 9 7 5 4 4 5 5 4 3 2 2 3
6 9 4 4 6 5 2 0 3 4 1 2 2 4 3 3 3 4 4 5 5 4 2 4 5 5 5 4 6 5 4 5 6 6 4 6 9 10 9 7 8 11 12 13 14 11 11 15 21 24 25 25 27 31 35 34 34 33 32 31 31 31 30 28 24 21 20 18 17 17 15 14 12 12 10 8 7 7 5 5 5 4 3 2 2 4
8 7 1 1 2 5 5 3 3 6 2 4 3 6 7 5 4 4 3 5 5 4 4 3 2 5 5 4 7 5 5 5 5 6 8 8 5 7 8 8 9 9 10 11 13 14 14 18 21 21 22 25 28 33 36 36 35 34 33 32 32 32 31 28 25 23 21 19 20 21 19 16 14 14 12 9 8 8 6 5 5 4 2 2 4 4
5 5 1 2 4 4 5 5 4 6 3 3 5 7 6 5 4 2 1 3 2 3 4 2 3 5 5 4 7 5 5 7 7 6 9 9 5 7 8 9 11 11 10 9 10 13 14 17 17 19 25 30 32 33 33 34 35 35 35 34 34 33 31 28 26 24 22 22 23 24 22 19 17 16 13 9 7 7 6 6 5 4 2 2 3 4
3 5 5 1 1 4 4 4 5 7 7 3 5 6 6 5 5 5 5 4 3 3 4 4 4 2 4 5 7 5 5 8 9 9 9 10 9 8 8 10 12 13 13 11 11 13 14 17 20 23 29 33 32 30 30 33 36 36 36 34 34 33 31 29 27 25 24 25 27 25 22 20 18 16 14 11 9 8 7 7 6 5 4 2 3 4
1 3 4 1 2 3 5 6 7 8 4 6 5 6 4 3 4 5 6 3 1 1 3 5 2 1 4 6 6 4 3 7 9 10 11 10 12 9 9 11 12 13 15 14 15 15 15 18 24 29 31 32 31 30 33 36 37 36 36 35 34 32 31 29 27 26 27 28 28 24 21 20 18 16 14 13 11 10 9 8 7 6 5 4 4 4
3 4 5 4 4 4 7 5 8 10 4 5 5 5 3 4 4 4 5 3 2 2 4 6 1 2 4 6 5 3 2 7 8 9 10 11 12 9 8 10 10 11 12 14 16 16 19 26 31 30 29 29 30 30 32 34 34 36 36 35 34 33 32 30 28 28 30 31 28 25 22 20 18 17 16 15 14 13 12 10 9 8 7 6 5 4
4 3 3 4 4 6 6 4 5 8 5 2 4 4 5 5 4 3 3 4 3 1 6 7 4 4 1 5 4 2 4 5 5 8 9 11 11 9 8 8 9 10 10 12 14 14 20 26 25 22 22 24 26 26 27 30 32 34 36 36 35 34 33 31 30 31 32 32 29 25 22 20 20 20 19 18 17 16 14 13 11 9 8 6 6 5
6 2 2 3 3 4 3 1 1 1 2 4 4 4 3 3 4 4 4 3 1 4 6 6 4 5 1 5 5 5 6 5 4 7 10 12 13 11 7 4 6 9 12 13 12 12 14 14 13 16 19 21 23 24 27 31 32 33 37 38 36 35 34 32 32 34 34 32 29 26 23 22 22 22 21 21 20 18 17 15 13 11 9 8 7 6
4 4 3 5 3 4 4 1 3 5 5 5 4 5 3 2 3 2 3 1 2 5 5 4 3 2 3 7 6 6 8 7 5 6 8 10 11 11 7 2 1 2 6 10 11 11 10 9 11 17 20 22 25 29 31 33 33 35 37 38 38 37 36 35 35 36 35 33 30 27 24 24 23 23 23 23 21 20 18 16 14 13 11 10 9 8
3 5 5 3 4 1 6 4 1 2 1 3 4 4 3 2 2 2 3 1 3 5 4 3 2 1 3 4 5 6 7 7 5 4 4 6 9 10 8 4 5 4 2 3 6 9 11 11 14 17 22 25 28 31 33 34 35 35 36 38 39 38 38 37 37 37 36 34 31 28 26 26 25 25 25 24 23 21 19 17 15 14 13 12 11 9
1 4 4 2 3 1 3 5 6 5 3 3 3 4 4 4 3 3 3 2 3 4 3 3 1 2 2 2 5 6 5 5 5 3 7 10 10 10 10 10 7 6 5 3 3 5 7 11 16 20 23 26 28 30 33 35 36 35 35 37 38 38 39 39 39 39 37 35 33 30 29 28 27 27 26 26 25 23 21 19 17 15 14 13 11 10
2 4 6 3 2 2 3 3 6 6 2 3 2 4 2 4 5 2 2 5 3 1 2 2 2 3 4 2 6 4 5 7 6 6 11 11 10 12 12 12 10 8 5 5 4 2 3 5 10 16 21 25 29 31 33 34 35 34 35 37 38 39 40 40 40 40 39 37 35 33 31 30 29 28 28 28 27 25 22 20 18 17 15 13 12 11
2 4 6 3 3 1 2 3 2 4 2 1 1 2 4 3 7 3 1 0 3 1 3 1 2 5 2 2 6 6 8 9 8 10 11 9 10 13 10 9 9 9 8 6 5 4 4 3 6 10 13 17 22 26 31 35 38 39 38 37 37 37 37 39 40 40 40 38 37 35 33 31 31 29 29 29 28 26 24 22 20 18 16 14 13 12
3 3 6 1 0 3 1 3 4 3 3 4 2 4 3 1 4 3 1 2 4 1 4 1 3 4 1 1 5 7 9 8 8 9 10 11 12 11 8 7 8 8 8 8 7 4 3 6 8 10 11 11 13 17 23 29 32 34 36 36 36 36 37 39 40 40 40 39 37 36 34 33 32 31 30 29 28 26 25 24 22 20 18 15 14 14
3 2 7 1 3 5 4 4 3 6 3 4 3 2 2 1 1 1 1 1 0 2 3 3 3 3 3 4 1 4 5 4 6 7 8 10 9 7 7 7 8 8 9 9 8 7 5 2 6 12 13 12 13 15 17 20 21 23 27 30 33 37 38 38 39 39 39 39 39 38 36 34 33 32 31 30 28 27 27 25 23 22 19 17 16 16
2 2 5 4 2 3 5 2 2 4 6 4 3 3 2 2 3 0 1 2 2 2 2 3 4 2 5 6 6 7 6 6 6 6 6 6 4 5 6 7 7 8 7 7 7 7 7 6 3 5 12 16 16 16 17 18 20 22 24 25 27 31 32 34 36 37 39 40 40 39 37 35 34 33 32 31 29 28 28 26 25 23 21 19 19 18
2 2 3 5 4 2 2 1 4 3 0 2 3 3 2 1 2 1 0 2 2 2 2 1 3 4 5 3 6 7 6 6 6 6 6 5 4 2 3 5 6 7 7 7 7 8 8 10 14 12 3 10 14 15 15 17 18 20 22 24 25 25 27 31 35 38 39 40 40 40 39 37 36 35 33 32 31 29 28 27 25 25 23 21 21 19
1 2 3 3 4 2 3 4 4 4 4 3 1 1 2 2 2 2 2 2 1 2 3 3 2 6 5 2 0 3 5 5 5 6 5 4 4 4 3 4 5 6 7 7 8 9 9 11 17 20 16 6 7 13 15 17 19 20 22 25 26 25 26 29 31 33 34 34 36 39 39 38 36 35 34 32 31 29 28 27 26 26 25 23 22 21
2 3 2 2 4 4 6 7 5 2 3 6 2 1 3 3 4 4 3 3 1 1 2 3 1 5 5 3 4 3 3 4 3 3 4 3 3 4 5 5 5 6 6 6 8 8 8 12 16 19 20 16 8 5 9 14 19 22 24 26 27 28 28 29 29 31 31 31 32 34 36 37 37 35 34 33 31 29 28 27 26 26 26 25 23 21
2 3 2 2 4 4 6 5 3 2 5 6 2 2 4 3 4 5 4 3 1 2 1 2 2 5 5 5 4 4 4 3 3 4 6 5 5 5 6 6 6 6 7 7 7 7 9 14 17 18 19 20 18 15 10 8 14 19 23 26 27 29 30 30 31 34 36 36 35 32 30 31 34 35 35 33 31 29 27 26 25 26 25 25 23 20
1 0 2 2 3 5 7 5 4 5 3 3 1 2 3 3 5 3 1 3 1 3 3 4 4 5 4 4 6 5 6 7 7 7 6 5 5 5 5 6 6 7 8 8 8 8 10 11 12 15 17 19 21 22 20 16 10 12 17 22 26 29 31 31 32 34 36 36 34 32 30 28 28 31 33 33 30 28 26 25 25 25 24 23 20 19
1 1 2 2 2 3 2 3 3 3 2 1 2 2 1 2 4 1 1 3 1 3 3 4 4 5 4 4 6 6 6 7 7 7 6 4 4 4 5 5 6 6 7 8 8 8 8 8 9 13 17 19 21 22 22 22 19 13 12 17 22 26 29 32 33 32 31 31 31 31 31 30 28 27 28 29 29 27 25 24 24 24 23 20 18 17
2 1 2 5 5 6 6 6 5 3 1 3 2 3 2 1 2 3 3 2 3 3 2 4 5 5 6 4 5 5 5 4 4 5 5 5 5 5 5 5 5 6 5 6 7 6 7 8 8 10 14 18 21 22 23 23 23 21 16 14 17 20 24 28 31 31 29 30 31 32 32 32 32 31 29 28 27 26 24 24 24 23 21 18 17 15
4 2 2 4 5 7 7 7 6 3 4 5 4 3 5 4 4 5 4 4 4 3 5 6 6 5 6 3 4 5 2 0 1 2 4 4 5 5 5 5 6 6 5 5 6 6 6 6 6 8 12 16 19 22 23 24 24 24 22 19 15 15 20 23 24 27 29 29 30 33 33 34 34 34 33 32 29 26 25 24 23 22 19 17 16 14
4 2 3 3 5 7 6 7 5 3 4 5 5 6 6 6 6 6 6 6 6 5 8 7 6 6 6 3 4 5 3 4 3 3 4 3 4 4 4 5 6 6 6 6 6 5 5 5 5 7 11 14 16 19 22 24 25 25 25 25 23 18 16 20 23 25 27 29 30 31 32 33 34 34 34 33 31 29 27 25 23 21 18 17 14 13
2 2 3 1 4 6 6 6 5 4 4 4 6 7 6 7 8 8 7 6 8 9 10 6 6 7 6 5 5 4 4 5 4 3 4 3 4 4 4 5 5 5 5 5 5 4 3 3 4 6 10 13 15 16 18 21 24 26 26 27 26 26 22 17 22 26 27 30 31 31 32 33 34 34 34 34 32 31 29 27 24 21 19 16 14 14
2 2 2 3 3 6 6 5 4 5 6 7 7 6 5 7 7 6 5 4 5 8 8 5 4 6 5 5 5 4 4 3 3 5 5 4 4 4 5 5 5 5 5 4 4 3 2 2 2 4 7 11 13 14 15 17 21 24 27 28 28 28 27 20 19 24 27 31 32 32 32 33 34 35 37 36 35 34 32 28 26 24 20 18 16 15
1 2 2 4 3 6 5 5 6 5 5 7 7 6 6 7 6 5 4 5 6 5 4 2 3 5 5 3 2 4 5 4 4 6 5 5 4 3 4 4 4 5 5 6 5 5 4 3 3 4 7 10 13 14 15 17 19 22 25 28 29 29 28 23 20 22 26 29 31 31 32 32 33 34 35 36 37 35 32 30 28 26 22 20 18 17
3 2 2 0 3 6 4 4 4 4 4 8 7 9 10 9 7 4 2 5 7 6 6 4 5 6 5 4 3 3 4 4 4 5 3 3 3 1 2 3 4 5 6 6 7 7 6 6 6 7 9 12 14 16 18 19 19 22 25 28 29 29 27 24 21 23 25 28 29 30 31 32 33 33 33 33 33 30 29 30 29 26 23 21 19 18
3 4 4 3 3 6 4 1 2 1 6 8 5 8 11 10 9 7 5 7 6 4 4 4 4 4 5 6 6 6 5 4 5 5 4 4 4 2 1 4 5 6 6 6 7 7 7 8 10 12 13 14 16 19 23 24 23 25 26 27 29 28 27 24 22 24 26 28 30 31 32 33 35 37 36 34 31 30 31 31 28 25 22 21 20 19
3 4 3 2 3 5 2 2 1 6 7 5 2 3 6 7 9 8 4 5 5 3 3 4 5 6 6 5 6 6 6 6 6 6 6 5 6 5 2 5 6 6 6 7 7 7 8 10 13 15 16 17 19 22 25 28 29 29 29 28 27 28 27 24 23 25 27 29 31 31 31 32 33 34 35 36 36 35 33 30 26 24 22 21 20 18
5 3 2 2 2 2 0 3 5 6 5 4 4 3 2 1 4 4 2 5 4 5 5 6 5 6 5 5 5 5 4 4 5 6 6 7 6 6 4 5 6 6 6 7 7 9 12 14 15 16 17 19 22 23 25 28 29 31 31 28 26 26 27 24 23 26 27 28 28 27 28 28 25 22 24 29 33 33 32 28 24 22 21 20 18 16
6 3 2 2 3 2 3 3 3 4 6 6 4 2 1 1 1 2 3 6 5 3 4 5 4 5 4 4 5 5 1 2 4 6 6 7 7 6 6 6 7 7 8 10 12 14 16 17 17 17 19 20 23 24 26 28 29 29 30 28 25 25 25 23 23 26 27 27 27 26 27 26 24 21 21 25 26 27 27 25 22 21 21 20 18 16
3 4 4 3 2 2 3 4 3 3 5 5 4 3 2 3 5 4 2 2 5 3 2 4 4 5 5 5 6 3 1 2 3 6 6 7 7 7 6 7 9 11 12 13 15 17 17 17 17 18 20 21 23 25 26 28 29 29 28 27 25 24 24 23 24 26 27 27 28 28 28 28 28 29 29 29 28 26 24 21 21 21 20 19 17 15
3 0 3 3 2 1 3 4 3 3 5 5 5 6 5 4 4 1 3 1 5 4 2 4 5 6 6 6 5 3 1 3 5 5 6 8 8 7 7 8 9 12 14 14 15 16 17 17 19 21 21 21 24 27 27 28 29 28 27 27 24 23 23 24 25 26 27 28 29 30 30 31 32 33 31 31 30 28 24 23 23 21 19 16 14 12
5 4 3 2 4 2 2 3 3 2 3 3 4 6 6 5 5 4 1 4 5 4 4 5 6 7 6 6 4 3 2 4 5 5 6 6 7 7 8 8 9 11 14 16 15 15 15 17 19 21 22 23 26 27 27 27 27 26 27 27 24 23 25 26 26 26 27 28 30 32 33 34 36 36 34 32 30 27 26 25 23 20 17 14 12 10
3 3 1 1 3 3 3 3 3 2 3 2 3 5 5 4 6 3 3 5 4 5 5 4 6 7 6 5 4 3 5 6 7 7 5 5 7 9 9 12 13 13 14 15 15 14 16 18 20 22 25 27 28 28 27 27 25 25 26 25 24 25 27 27 26 26 26 26 28 31 33 36 38 37 35 33 30 27 25 22 19 16 14 12 10 9
2 2 3 1 1 2 2 2 2 3 3 3 2 3 3 3 2 2 4 4 3 5 5 4 6 6 5 5 5 5 6 7 8 8 7 6 7 8 9 12 14 15 14 13 13 14 16 20 22 24 26 27 27 27 27 25 24 25 25 24 25 28 30 28 25 25 25 24 24 26 28 33 36 35 32 31 29 27 23 18 15 13 12 10 9 9
1 1 3 2 1 1 1 1 1 2 2 2 2 3 3 1 2 4 4 3 3 4 4 4 5 5 5 6 6 7 8 9 9 10 10 8 7 8 10 11 11 14 16 15 15 17 17 19 23 24 25 26 26 26 27 25 24 24 23 24 27 30 30 26 22 24 26 25 25 26 29 33 35 34 32 29 26 24 20 17 15 13 11 10 10 10
1 1 2 2 1 0 1 1 2 3 3 2 1 0 2 3 4 3 2 3 4 3 3 3 5 6 6 6 6 8 8 9 10 11 11 11 9 8 9 10 11 14 17 18 19 20 20 21 23 24 26 26 26 26 26 24 24 23 23 27 30 28 24 20 20 25 27 27 28 29 30 32 33 31 29 26 23 22 20 18 16 14 13 12 11 11
2 2 3 3 3 2 4 5 4 3 3 2 3 3 5 6 5 4 5 4 4 3 4 4 5 7 6 6 7 8 8 9 11 11 11 12 11 9 10 12 14 15 18 20 22 23 23 23 23 24 25 26 26 26 26 24 23 23 25 28 28 23 17 18 23 27 29 31 32 32 31 31 30 28 27 24 23 21 20 19 17 14 13 12 11 10
4 2 2 2 3 3 3 4 4 3 4 4 3 5 6 7 6 4 5 5 5 5 5 5 6 7 7 7 7 7 9 10 11 11 11 11 11 11 11 12 14 17 19 20 21 24 24 23 23 23 24 25 25 25 23 21 20 22 25 26 24 19 19 24 27 28 29 32 34 34 33 32 30 30 29 26 23 21 19 17 14 11 10 10 9 8
3 1 2 1 4 4 3 4 4 5 6 7 7 7 7 7 6 4 4 5 6 6 6 6 7 7 7 7 8 9 11 11 11 11 11 10 11 11 9 10 13 16 18 19 22 24 23 20 20 20 21 23 23 21 20 20 20 21 22 21 18 18 22 28 31 31 31 33 33 32 33 32 31 30 29 26 23 20 16 12 10 8 8 8 7 7
3 2 2 3 4 4 4 6 7 9 9 8 6 6 6 6 6 6 5 6 6 6 7 7 7 7 7 8 9 10 11 11 11 10 10 9 10 10 8 9 13 16 18 21 23 22 20 19 19 19 20 21 19 19 20 19 16 14 14 15 18 23 26 29 33 35 35 34 31 29 30 31 30 28 26 23 19 16 12 9 7 6 5 4 3 4
3 3 3 3 4 5 6 7 7 8 9 7 6 6 5 6 7 7 7 7 7 8 9 9 9 8 8 9 9 8 9 11 10 10 10 10 9 8 9 11 15 17 19 21 22 22 20 20 19 20 21 19 17 19 19 12 7 9 13 19 26 32 32 30 31 35 35 33 29 26 26 27 26 25 22 19 14 11 9 8 7 6 5 3 1 2
2 4 5 3 4 5 6 7 6 5 6 8 7 7 7 7 6 7 8 8 8 9 9 10 10 10 9 10 10 8 9 11 10 9 10 9 8 9 11 13 15 17 19 21 22 21 21 21 20 20 19 18 17 16 9 9 14 13 16 24 33 38 37 32 30 30 29 27 25 23 22 22 21 20 18 16 14 12 10 9 8 6 4 2 1 3
4 5 5 4 5 6 8 10 7 4 6 10 9 8 8 6 6 8 9 9 9 9 8 8 10 10 9 10 11 10 9 9 10 10 9 9 11 12 14 15 15 16 19 21 20 19 19 20 19 18 17 18 18 13 9 16 18 15 17 24 32 37 36 33 30 27 25 25 24 23 22 22 22 21 19 17 15 13 11 10 9 7 5 4 2 3
Wind_Direction
91 42 286 222 231 237 232 207 182 180 158 141 118 120 108 84 298 288 274 300 47 118 293 240 224 289 266 279 286 291 350 203 191 169 185 201 195 195 192 189 191 195 195 184 184 187 186 183 179 176 174 171 170 171 172 169 167 168 171 176 174 170 167 165 161 156 154 154 151 148 147 143 142 147 157 169 177 182 184 182 178 182 186 189 186 177
57 3 254 229 222 224 226 198 153 119 100 99 112 84 1 295 268 278 260 306 354 122 298 281 183 283 275 270 280 301 339 296 196 172 185 198 200 199 197 198 193 185 159 155 180 190 189 185 181 179 174 172 172 172 173 170 167 168 172 176 176 172 171 168 163 160 159 158 157 155 152 149 147 152 163 170 178 190 195 193 193 197 200 197 188 173
4 275 257 241 201 172 128 116 109 98 90 78 95 62 342 267 284 300 286 312 1 105 291 320 52 277 273 270 284 291 264 256 228 188 188 195 204 207 203 200 181 161 157 165 181 192 191 186 182 181 178 177 176 173 173 172 168 169 171 175 176 175 173 170 168 168 167 166 165 161 156 151 147 148 156 160 162 173 187 189 192 204 215 215 210 195
313 254 249 206 133 139 28 82 100 102 89 83 112 116 281 271 301 296 296 318 351 58 211 49 38 303 294 302 285 273 248 269 277 233 196 183 201 212 207 201 182 172 174 179 187 193 188 181 184 187 184 181 178 174 174 174 171 170 172 173 174 173 173 173 174 176 176 175 175 171 162 153 149 152 157 160 165 168 173 179 183 193 212 241 238 195
255 253 238 101 125 158 187 134 119 145 232 296 176 159 203 233 203 221 279 326 343 3 51 77 28 322 314 321 288 300 339 310 309 307 262 207 201 208 207 206 198 188 183 183 186 187 182 185 191 191 187 183 181 178 178 178 174 172 175 175 174 174 175 176 177 182 186 184 183 181 169 157 154 159 165 174 186 193 192 191 192 196 217 245 203 161
263 264 215 155 199 161 173 228 199 172 213 309 249 200 199 201 207 239 325 17 25 344 334 44 18 293 316 320 271 293 338 304 316 326 282 255 206 187 200 203 197 200 200 192 186 184 188 194 192 188 186 186 188 186 184 180 176 174 177 178 177 177 177 179 181 187 193 191 186 181 174 167 165 169 175 181 188 195 200 200 200 195 199 211 185 176
268 293 356 243 233 159 174 237 231 171 136 315 248 202 183 158 145 169 147 85 98 261 295 47 151 251 317 318 264 288 325 297 303 307 278 274 250 191 198 202 191 193 198 196 194 191 193 193 186 185 191 193 193 192 186 181 178 178 180 180 181 181 180 181 184 191 198 194 184 182 181 179 180 181 182 184 187 192 202 207 206 198 164 143 175 192
267 319 349 353 132 138 171 237 225 151 123 240 235 163 150 148 155 169 164 167 206 240 312 16 113 207 302 278 266 307 322 294 295 289 274 271 262 229 208 205 196 191 187 185 192 196 198 194 189 191 195 197 195 191 186 183 182 183 183 183 185 185 183 184 188 196 200 193 184 185 187 187 191 192 184 183 189 193 207 215 213 204 181 149 142 162
255 298 286 222 104 146 198 218 193 144 135 241 210 148 158 177 166 149 137 169 238 76 300 322 51 166 279 274 291 340 304 278 279 275 272 269 263 247 218 207 199 193 187 183 189 194 198 198 198 197 196 196 194 191 189 186 185 186 186 187 188 189 188 188 192 199 199 192 188 189 192 192 196 196 186 184 192 197 206 214 210 201 190 183 165 158
239 231 216 163 135 202 228 220 173 158 187 234 161 120 51 54 92 100 116 142 60 71 240 270 245 168 272 279 299 355 271 259 265 269 270 270 268 257 229 211 196 191 188 187 191 193 197 200 201 199 195 193 194 193 191 187 187 188 189 190 192 193 192 191 195 198 195 191 191 192 195 197 197 194 189 188 193 198 204 206 203 196 191 191 186 178
283 260 174 157 179 205 215 202 169 174 185 153 101 74 27 25 41 46 78 107 73 306 248 247 203 150 299 280 252 217 223 231 258 284 288 290 294 284 253 216 182 180 186 192 195 195 201 203 200 194 191 191 192 193 191 189 190 190 191 193 195 196 194 193 195 195 193 193 195 196 197 200 199 195 193 192 192 196 199 199 196 194 193 194 195 199
329 318 200 244 222 166 168 199 36 25 69 83 79 68 41 341 8 18 358 44 117 260 261 244 194 126 118 266 247 247 263 253 247 274 290 300 308 306 286 240 185 183 183 186 192 197 200 195 185 185 187 187 188 192 192 192 193 192 193 195 196 197 197 195 195 195 196 197 198 199 200 201 200 199 199 199 197 198 198 197 193 191 194 198 201 208
320 247 263 302 263 144 132 242 337 2 31 79 97 80 75 332 3 350 301 320 213 252 254 218 182 122 221 252 257 264 278 277 252 260 287 305 320 328 323 321 106 189 189 187 187 188 190 186 184 184 181 181 188 194 195 195 195 195 195 195 197 198 198 196 195 198 201 202 201 201 202 201 201 203 205 206 206 205 203 199 195 194 195 197 200 204
326 302 324 336 288 173 134 162 247 311 41 140 149 122 125 125 56 281 270 285 257 267 272 231 211 277 276 272 274 270 283 301 303 303 337 9 12 2 353 18 73 78 92 205 203 189 186 191 192 187 183 187 192 195 196 197 198 197 196 196 198 199 199 197 197 200 204 206 205 203 203 202 201 204 208 211 214 213 209 206 205 205 203 202 202 200
119 306 293 192 271 319 125 159 167 160 170 201 179 131 139 154 156 230 230 206 252 274 298 291 234 191 203 262 286 283 307 340 336 354 54 51 39 35 24 23 45 75 100 123 215 225 215 204 195 190 190 193 195 196 198 199 200 199 197 198 198 199 199 199 199 201 205 208 208 206 204 204 204 206 210 214 218 219 215 213 213 213 213 212 211 206
150 253 258 254 289 89 116 193 158 125 103 257 169 109 150 182 157 188 198 177 191 248 303 289 230 220 200 248 312 336 32 22 5 31 54 49 41 49 38 23 28 39 68 110 140 199 267 258 224 205 197 197 198 198 199 200 202 201 200 200 200 200 200 200 200 201 205 208 209 208 206 206 206 207 210 214 218 221 220 217 218 218 218 219 217 212
140 267 281 317 346 61 166 237 160 123 149 243 109 157 234 189 128 122 260 316 85 104 278 266 246 290 339 14 334 24 50 25 15 36 46 42 43 51 43 25 29 32 39 65 106 147 167 204 242 238 225 216 209 203 201 202 204 204 203 201 200 201 202 202 202 203 205 207 209 209 209 208 208 208 210 213 215 220 220 219 220 221 220 220 218 217
148 255 290 357 284 287 140 77 24 20 123 119 153 222 239 40 87 113 170 1 45 184 274 282 213 277 349 265 320 32 56 31 21 33 40 39 38 39 35 29 28 27 37 47 52 62 129 164 194 225 243 248 238 224 216 212 211 209 207 203 201 201 203 203 203 204 206 207 209 210 211 211 211 211 212 213 216 219 220 219 219 218 218 219 218 219
125 234 288 276 200 289 7 70 1 335 21 108 157 187 114 99 301 11 103 166 278 233 281 306 267 245 213 216 251 73 93 78 54 46 49 49 41 27 16 23 28 27 31 37 39 33 29 91 188 210 222 234 240 238 234 230 228 223 217 211 206 204 205 205 205 205 206 208 210 212 213 213 214 214 214 215 217 219 219 219 218 216 216 218 218 219
67 142 275 284 233 303 2 52 213 312 345 21 55 34 44 135 165 134 111 168 203 225 250 303 309 268 233 207 157 152 168 142 106 83 77 74 59 36 20 20 24 28 31 31 33 29 21 27 40 211 219 224 227 233 236 233 232 229 225 222 216 211 209 206 206 206 207 210 211 212 213 214 215 215 216 217 218 218 219 218 217 215 214 215 216 217
37 104 247 295 319 315 345 212 175 173 315 15 25 13 6 49 107 74 12 124 141 181 194 245 285 268 257 215 153 159 173 158 133 117 124 139 133 98 41 25 21 21 22 24 30 27 18 16 22 26 340 234 224 224 230 232 234 233 228 226 224 219 214 211 209 208 210 211 211 212 213 214 215 215 216 218 219 218 217 215 214 213 211 212 213 213
58 125 196 294 322 269 249 247 203 181 166 144 153 173 153 152 106 88 301 314 95 166 177 165 241 272 272 290 165 175 173 171 152 135 140 147 128 113 70 34 32 34 25 21 29 32 25 15 18 29 32 0 247 229 226 225 228 230 229 228 226 223 220 217 213 211 212 214 214 214 214 214 214 214 214 216 218 216 214 212 211 210 208 207 207 209
141 103 123 259 259 234 250 260 267 274 120 114 118 131 121 119 108 127 210 259 300 245 165 130 179 271 274 313 323 270 217 207 191 128 96 75 55 61 60 46 49 55 44 34 36 35 32 23 21 29 36 30 8 285 249 234 227 225 226 226 224 223 221 219 216 214 214 217 219 219 217 215 213 212 211 213 215 214 212 210 208 207 205 203 202 204
81 72 61 300 291 305 300 287 299 347 82 91 40 44 91 111 123 145 176 169 195 247 152 126 236 265 279 316 324 294 299 310 324 11 38 43 26 38 63 65 61 56 45 37 37 36 33 28 24 23 26 28 27 18 355 297 251 234 227 223 222 224 222 219 218 216 215 215 218 220 220 218 214 210 209 211 213 213 211 209 206 204 202 200 199 199
321 5 89 31 338 333 339 348 342 335 36 99 87 40 77 99 95 87 88 93 184 235 166 162 232 243 256 320 338 332 342 347 347 359 18 39 36 37 57 65 66 59 48 40 35 32 31 27 23 19 15 17 20 18 14 3 326 272 246 232 225 224 224 222 221 219 216 214 213 213 216 218 215 211 209 209 210 210 209 207 204 201 199 197 196 195
242 198 144 144 209 230 266 280 259 280 320 104 132 104 59 78 94 87 35 92 184 251 164 159 222 258 273 336 336 330 354 352 344 354 6 22 32 36 50 58 63 62 56 50 42 33 29 25 22 19 13 11 11 9 8 8 3 340 296 260 241 231 227 225 223 221 218 214 210 210 212 211 210 211 210 209 208 207 206 205 202 198 196 195 195 195
130 80 177 165 188 205 208 227 225 187 210 264 225 150 150 129 115 113 105 143 194 222 243 205 201 255 282 307 312 318 5 4 335 350 353 349 360 16 37 44 50 57 58 57 52 39 30 24 17 16 14 10 7 4 1 1 2 359 342 305 269 249 238 231 226 223 221 216 211 210 210 209 206 206 208 209 207 204 201 201 200 196 195 195 195 196
83 353 271 173 209 226 212 226 237 191 201 237 237 185 177 182 152 130 159 212 175 160 266 249 188 215 256 259 278 294 327 107 222 325 318 322 344 356 16 31 38 42 37 41 45 38 34 23 3 5 11 9 6 2 359 357 355 354 351 341 319 279 255 247 238 229 225 221 214 210 209 208 206 204 204 204 202 197 194 194 195 196 195 195 194 197
95 282 257 208 253 255 233 237 248 231 220 223 217 205 191 187 187 186 207 207 163 180 248 241 187 208 236 239 256 259 228 201 202 234 262 288 336 347 19 40 37 27 20 24 25 21 25 17 360 358 359 1 4 0 356 354 350 347 344 343 342 326 287 260 247 237 230 225 220 216 211 207 206 203 200 197 193 189 188 188 191 194 195 194 195 199
112 271 274 266 296 291 273 262 252 241 248 247 234 223 202 194 200 208 219 205 184 212 242 232 207 231 237 221 235 253 252 245 246 271 297 335 0 10 39 46 33 19 11 5 355 347 350 345 344 352 352 354 356 354 352 348 345 342 337 335 336 336 326 289 253 240 232 228 226 221 214 208 205 200 194 190 188 186 184 184 187 190 192 194 197 201
55 286 303 29 349 297 290 294 270 236 236 244 251 240 205 198 211 224 232 202 193 234 257 246 232 255 253 226 234 281 303 299 328 330 334 351 358 20 43 32 12 3 351 333 314 301 282 271 309 340 345 344 341 342 343 340 338 336 333 331 328 329 331 315 270 246 235 230 227 222 214 207 201 195 190 187 187 186 183 180 183 186 189 193 196 200
52 278 326 31 319 276 283 297 290 285 270 256 242 217 195 196 205 214 217 197 187 203 225 224 236 246 242 225 243 308 328 349 337 309 310 330 334 24 47 14 346 339 329 320 312 308 307 307 324 330 329 331 330 330 330 329 330 329 326 326 324 323 325 315 282 254 239 230 224 217 210 203 196 190 186 184 184 184 180 178 181 184 186 189 192 197
166 218 269 175 262 270 264 263 295 348 310 270 236 194 193 205 208 203 227 225 200 163 156 197 227 218 188 161 173 251 291 299 282 265 269 295 284 291 24 329 307 308 310 310 309 311 313 312 315 318 320 324 324 324 325 324 322 321 320 320 318 318 320 311 283 257 241 229 220 212 205 200 194 188 185 182 181 183 180 177 178 180 183 187 191 195
177 197 225 192 223 264 263 268 22 344 253 254 232 185 190 201 199 193 207 219 204 165 152 180 192 177 158 152 167 196 227 242 248 246 245 236 215 206 292 283 282 295 299 300 300 299 298 301 308 313 316 321 322 323 324 323 320 317 316 316 314 312 315 308 281 255 238 226 218 210 203 199 194 190 186 183 182 183 182 179 177 178 182 186 188 191
236 213 226 191 205 253 269 88 245 251 242 246 267 200 196 186 166 167 208 224 195 180 157 141 146 165 176 185 186 191 212 239 259 260 251 227 197 184 232 274 279 285 288 293 294 292 292 295 301 307 312 317 320 320 320 320 319 317 314 312 309 307 310 305 279 253 236 224 217 209 202 198 194 189 185 181 179 180 179 177 174 174 179 184 186 189
226 212 213 197 197 243 185 166 212 249 285 301 312 344 354 71 105 105 302 280 231 196 175 162 178 194 195 208 218 212 225 269 292 274 244 227 210 194 210 252 264 260 263 271 272 279 288 291 293 299 306 311 313 314 315 315 315 314 310 307 303 301 305 300 274 249 234 222 213 206 200 195 190 187 180 172 171 173 173 171 170 171 176 182 184 186
195 174 186 221 213 189 190 214 244 304 315 299 297 359 51 229 215 190 246 272 268 226 162 153 198 241 239 240 249 243 233 1 318 286 255 230 223 220 223 234 244 250 257 266 273 280 286 290 293 297 301 305 306 307 308 310 311 309 304 300 298 296 298 291 266 245 231 219 209 202 197 190 180 172 163 159 163 169 167 164 167 173 179 182 181 183
189 180 180 201 218 166 196 261 291 292 275 259 261 286 275 238 244 218 181 282 287 267 168 154 204 244 241 252 264 258 75 42 285 276 271 254 243 243 249 250 250 254 259 267 279 286 289 292 296 299 301 301 300 301 303 305 307 303 297 293 291 290 289 279 259 242 228 215 205 197 192 186 176 167 162 163 169 169 163 163 172 179 183 183 181 183
358 185 146 165 237 140 173 232 240 230 245 242 252 283 304 302 286 158 106 296 280 272 219 192 231 244 229 232 235 191 83 323 284 262 255 252 250 246 249 260 266 268 272 277 281 283 288 295 298 299 298 294 292 296 299 300 300 296 289 288 287 284 279 270 257 243 227 214 203 195 189 183 175 168 165 168 170 168 167 174 178 177 178 181 183 188
12 13 75 162 236 228 181 231 243 231 246 246 258 283 303 334 14 60 118 257 269 271 234 202 228 246 231 224 218 187 219 270 271 260 240 239 256 259 255 264 270 270 277 284 284 282 286 292 293 293 292 290 289 292 293 293 292 287 283 285 285 277 270 268 262 248 230 215 202 192 187 181 173 168 168 171 171 169 170 171 170 170 175 183 189 194
2 346 12 164 223 232 214 241 270 262 248 253 277 290 307 3 47 83 217 240 258 275 259 212 227 246 236 225 225 222 236 245 257 271 264 260 281 282 274 276 278 277 277 281 284 287 289 290 290 289 289 290 291 289 288 287 283 280 280 282 279 273 270 272 268 251 231 214 201 191 183 176 169 165 167 169 168 165 163 162 163 169 177 183 188 197
350 333 329 9 218 230 194 210 282 289 262 250 266 297 334 37 91 210 236 240 243 270 284 262 248 252 251 250 247 246 259 269 278 286 286 276 273 277 282 287 292 294 290 282 280 284 288 291 293 292 291 292 292 289 287 283 276 275 277 275 272 274 277 277 267 243 221 206 195 185 175 168 165 164 164 163 159 156 155 156 158 164 172 180 190 208
289 305 299 269 235 287 54 60 309 280 274 276 310 345 10 52 230 253 273 272 250 264 289 283 261 251 250 259 263 262 273 284 286 287 288 279 263 264 276 282 286 290 289 285 283 287 291 293 294 293 293 295 295 291 288 281 274 273 272 269 271 279 282 276 254 224 205 192 181 173 166 162 161 159 157 154 151 149 149 153 160 167 179 192 206 222
228 188 260 265 251 64 55 236 217 215 237 229 140 104 269 255 255 252 249 270 278 275 262 257 263 259 244 245 265 275 280 284 284 285 288 286 279 273 275 278 279 281 283 284 288 296 300 295 290 290 292 295 296 294 289 281 274 270 268 267 272 279 278 258 223 199 185 173 165 158 152 150 150 148 146 145 146 147 148 156 171 182 193 204 216 225
235 200 199 230 245 216 208 229 242 252 259 229 181 216 253 267 263 219 196 225 261 250 215 216 255 265 252 247 265 277 280 279 279 281 281 282 282 280 279 282 281 278 280 283 290 297 298 291 287 288 291 294 296 294 289 281 273 267 265 266 271 272 253 217 191 177 166 157 150 145 141 143 147 146 143 143 149 156 161 170 179 189 200 211 220 226
265 277 145 188 270 292 263 250 259 272 278 279 260 253 267 274 261 221 207 228 241 239 228 226 245 257 259 263 267 270 270 269 273 276 274 275 278 276 275 277 276 274 275 279 286 292 291 288 287 288 289 293 295 292 285 281 275 267 264 265 264 250 218 191 172 159 151 145 142 142 147 152 155 152 150 152 159 166 171 176 180 190 205 214 219 230
286 351 63 235 277 301 295 280 286 286 287 294 293 285 282 273 253 232 233 244 249 251 251 248 249 254 259 262 258 260 265 265 267 272 274 273 274 273 272 270 269 269 269 273 282 287 286 285 285 286 288 290 289 282 276 279 280 271 263 257 242 213 188 170 156 146 141 140 143 152 158 160 159 157 159 164 169 171 171 172 180 196 208 213 221 240
280 340 329 247 236 240 248 264 283 288 285 281 274 272 272 265 262 264 260 258 267 273 268 261 256 255 257 258 254 255 262 266 266 267 270 271 271 271 270 264 263 267 271 276 280 281 280 281 281 283 285 285 280 278 279 280 274 256 235 215 193 173 160 153 148 142 141 145 153 162 164 162 161 162 164 168 170 170 170 171 176 185 187 191 220 257
257 293 279 250 258 275 269 267 279 291 293 281 259 250 248 245 252 261 260 258 262 266 267 266 258 250 249 257 259 257 261 266 266 264 268 272 271 269 267 264 266 271 275 278 280 279 279 280 280 282 283 278 278 285 284 266 212 180 171 164 158 150 143 140 139 138 143 151 157 160 161 160 162 164 165 163 155 148 151 157 156 155 157 159 197 312
215 257 258 263 284 279 267 266 266 272 285 283 270 258 252 247 248 255 263 266 264 260 263 270 270 263 253 253 257 256 259 266 267 264 267 269 265 262 265 268 272 277 279 281 283 283 283 282 282 282 279 277 287 292 267 162 131 131 141 142 140 137 134 131 131 134 143 153 157 157 156 156 158 158 154 146 140 139 145 152 152 147 139 126 49 329
191 228 238 242 255 255 262 271 268 250 265 275 271 257 250 249 252 260 266 271 271 270 269 270 276 280 274 265 261 253 251 261 269 268 268 266 263 264 269 273 276 278 281 285 287 287 288 288 286 281 279 287 297 284 202 148 124 121 131 130 129 130 131 132 135 140 150 160 162 159 153 147 144 141 137 135 142 149 150 149 150 144 118 93 56 342